Location: Lugrin
(46.4033°N, 6.6674°E)
Time: 01:41:29
(UTC+00:00)

CREW DRAGON DEMO-1 DEB - Pass Details

Date: 18 September 2020
Orbit: 361 x 363 km, 51.6° (Epoch: 29 October)

Event Time Altitude Azimuth Distance (km) Brightness Sun altitude
Rises 18:29:40 0° 280° (W) 2,194 9.1 -9.6°
Reaches altitude 10° 18:31:51 10° 292° (WNW) 1,349 7.2 -10.0°
Maximum altitude 18:34:33 29° 356° (N) 704 4.4 -10.4°
Enters shadow 18:37:12 10° 59° (ENE) 1,339 5.2 -10.9°
